Location: NJAA Observatory
(40.6819°N, 74.8979°W)
Time: 09:41:19
(UTC-04:00)

Iridium 56 - Visible Passes

Search period start: 18 September 2014 00:00
Search period end: 28 September 2014 00:00
Orbit: 776 x 779 km, 86.4° (Epoch: 17 September)

Date Brightness Start Highest point End Pass type
(mag) Time Alt. Az. Time Alt. Az. Time Alt. Az.
18 Sep 5.9 04:23:03 33° SSE 04:25:20 63° E 04:30:29 10° N visible
18 Sep 7.1 06:03:40 10° WSW 06:06:32 15° WNW 06:09:23 10° NW visible
19 Sep 7.0 03:50:21 28° ESE 03:51:57 34° E 03:56:36 10° NNE visible
19 Sep 6.5 05:30:52 22° WSW 05:32:40 27° WNW 05:37:02 10° NNW visible
20 Sep 7.8 03:17:35 18° E 03:18:40 19° E 03:22:13 10° NE visible
20 Sep 5.7 04:58:06 44° WSW 04:58:57 48° W 05:04:00 10° N visible
21 Sep 5.4 04:25:16 87° SSW 04:25:22 89° W 04:30:36 10° N visible
22 Sep 6.4 03:52:23 48° ENE 03:52:23 48° ENE 03:56:55 10° NNE visible
22 Sep 6.9 05:32:54 19° WNW 05:32:54 19° WNW 05:36:31 10° NNW visible
23 Sep 7.5 03:19:28 25° ENE 03:19:28 25° ENE 03:22:52 10° NNE visible
23 Sep 6.4 04:59:58 31° WNW 04:59:58 31° WNW 05:03:49 10° NNW visible
24 Sep 8.2 02:46:31 14° ENE 02:46:31 14° ENE 02:48:08 10° NE visible
24 Sep 6.2 04:27:01 42° NNW 04:27:01 42° NNW 04:30:37 10° N visible
25 Sep 6.7 03:54:01 36° NNE 03:54:01 36° NNE 03:57:06 10° N visible
25 Sep 7.5 05:34:31 12° WNW 05:34:31 12° WNW 05:35:30 10° NW visible
26 Sep 7.6 03:21:00 24° NE 03:21:00 24° NE 03:23:17 10° NNE visible
26 Sep 7.2 05:01:30 18° NW 05:01:30 18° NW 05:03:27 10° NNW visible
27 Sep 8.2 02:47:57 14° NE 02:47:57 14° NE 02:49:02 10° NNE visible
27 Sep 7.1 04:28:26 23° NNW 04:28:26 23° NNW 04:30:30 10° NNW visible
